Temperature
9 9 9 9 9 9 9 9 9 9 10 10 10 10 10 10 10 10 10 10 10 10 10 10 11 11 10 10 10 10 10 10 11 11 11 11 11 11 11 11 11 11 11
8 8 8 8 8 8 8 8 8 9 9 9 9 9 9 9 9 9 9 9 10 10 10 10 10 10 10 10 10 10 10 10 10 10 10 11 11 11 11 11 11 11 11
7 7 8 8 8 8 8 7 8 8 8 8 8 8 8 8 9 9 9 9 9 9 9 9 9 9 9 9 9 9 9 9 9 10 10 10 10 10 10 10 10 10 11
7 7 7 7 7 7 7 7 7 7 7 7 7 7 8 8 8 8 8 8 8 8 8 8 8 9 9 9 9 9 9 9 9 9 9 9 9 10 10 10 10 10 10
6 6 6 6 6 6 6 6 6 6 6 6 6 7 7 7 7 7 7 7 7 7 7 7 8 8 8 8 8 8 8 8 8 8 8 9 9 9 9 9 10 10 10
5 5 5 5 5 5 5 5 5 5 5 5 6 6 6 6 6 6 6 6 6 6 7 7 7 7 7 7 7 8 8 8 8 8 8 8 8 8 9 9 9 9 9
5 5 5 5 5 5 5 5 5 5 5 4 5 5 5 5 5 5 5 6 6 6 6 6 6 6 6 6 7 7 7 7 7 7 7 7 7 7 8 8 8 8 9
4 4 4 4 4 4 4 4 4 4 4 4 3 3 3 4 4 4 5 5 5 5 5 5 5 5 6 6 6 6 6 7 7 7 7 7 7 7 7 7 8 8 8
3 3 3 3 3 3 3 3 3 3 3 3 3 2 2 2 2 3 4 4 4 4 4 4 5 5 5 5 5 6 6 6 6 6 6 6 6 6 7 7 7 7 7
3 3 3 3 3 2 2 2 2 2 2 2 2 2 1 1 1 1 2 3 3 3 4 4 4 4 4 4 4 5 5 5 5 5 5 5 6 6 6 6 6 7 7
2 2 2 2 2 2 2 2 2 1 1 1 1 1 1 1 1 0 1 2 2 3 3 3 3 3 3 4 4 4 4 4 4 4 5 5 5 5 5 6 6 6 6
2 1 1 1 1 1 1 1 1 1 1 1 1 1 0 -0 0 -0 -0 0 1 2 2 3 3 3 3 3 3 3 3 4 4 4 4 4 5 5 5 5 5 6 6
1 1 1 1 1 0 0 0 0 0 0 0 0 -0 -0 -0 -0 -1 -1 -1 -1 1 1 2 2 2 2 2 2 3 3 3 3 3 4 4 4 4 4 4 5 5 5
0 0 -0 -0 -0 -0 -0 -0 -0 -0 -0 -0 -1 -1 -1 -1 -1 -1 -1 -2 -2 -1 -0 1 1 2 2 2 2 2 2 2 2 3 3 3 3 4 4 4 4 4 4
-1 -1 -1 -1 -1 -1 -1 -1 -1 -1 -1 -1 -1 -1 -1 -1 -1 -1 -2 -2 -2 -3 -2 -1 0 1 1 1 1 1 2 2 2 2 2 3 3 3 3 3 3 4 4
-1 -1 -1 -1 -1 -1 -2 -2 -2 -2 -2 -2 -2 -2 -2 -2 -2 -2 -2 -2 -3 -3 -3 -2 -1 -0 0 0 1 1 1 1 1 2 2 2 2 2 3 3 3 3 3
-2 -2 -2 -2 -2 -2 -2 -2 -2 -2 -2 -2 -3 -3 -3 -3 -2 -2 -2 -2 -3 -3 -3 -3 -2 -1 -1 -0 0 0 0 1 1 1 1 2 2 2 2 2 2 3 3
-2 -2 -3 -3 -3 -3 -3 -3 -3 -3 -3 -3 -3 -3 -3 -3 -3 -3 -3 -3 -3 -3 -3 -3 -2 -2 -1 -1 -1 -0 -0 -0 0 0 1 1 1 1 1 2 2 2 2
-3 -3 -3 -3 -3 -3 -3 -4 -4 -4 -4 -4 -4 -4 -4 -4 -4 -4 -4 -4 -4 -4 -4 -4 -3 -3 -2 -2 -1 -1 -1 -0 -0 -0 -0 -0 0 1 1 1 1 2 2
-3 -4 -4 -4 -4 -4 -4 -4 -4 -4 -4 -4 -5 -5 -5 -5 -5 -5 -4 -4 -4 -4 -4 -4 -4 -3 -3 -3 -2 -2 -2 -1 -1 -1 -1 -1 -0 -0 0 0 0 1 1
-4 -4 -4 -4 -4 -4 -4 -5 -5 -5 -5 -5 -5 -5 -5 -5 -5 -5 -5 -5 -5 -5 -5 -5 -4 -4 -3 -3 -3 -3 -3 -2 -2 -1 -1 -1 -1 -1 -0 -0 0 0 1
-4 -5 -5 -5 -5 -5 -5 -5 -5 -5 -5 -5 -5 -5 -5 -5 -5 -6 -6 -6 -6 -5 -5 -5 -5 -5 -4 -4 -4 -4 -4 -4 -3 -2 -2 -2 -1 -1 -1 -1 -0 -0 0
-5 -5 -5 -5 -5 -5 -5 -6 -6 -6 -6 -6 -6 -6 -6 -6 -6 -6 -6 -6 -6 -6 -5 -5 -5 -5 -5 -4 -5 -4 -4 -4 -4 -3 -3 -2 -2 -2 -1 -1 -1 -1 -0
-6 -6 -6 -6 -6 -6 -6 -6 -6 -6 -6 -6 -6 -6 -6 -6 -6 -6 -6 -6 -6 -6 -5 -5 -5 -5 -5 -5 -5 -5 -5 -4 -4 -4 -4 -3 -3 -2 -2 -2 -1 -1 -1
-6 -6 -6 -6 -6 -6 -6 -7 -7 -7 -7 -6 -6 -6 -6 -7 -6 -7 -7 -6 -6 -6 -6 -6 -6 -6 -5 -5 -5 -5 -5 -5 -5 -4 -4 -4 -4 -3 -3 -2 -2 -2 -2
-7 -7 -7 -7 -7 -7 -7 -7 -7 -7 -7 -7 -7 -7 -7 -7 -7 -7 -7 -7 -7 -6 -6 -6 -6 -6 -6 -6 -5 -6 -5 -5 -5 -5 -4 -5 -4 -4 -4 -3 -2 -2 -2
Wind_Speed
6 6 7 8 8 8 8 7 8 8 7 7 7 7 7 7 7 7 7 8 7 6 5 4 3 2 2 3 2 1 1 2 2 2 1 0 0 1 3 4 5 6 7
7 6 6 7 7 7 7 7 7 6 5 5 6 6 6 5 6 7 7 7 7 7 6 5 4 3 2 2 3 2 1 1 0 0 1 1 1 1 1 3 4 5 7
8 7 6 6 7 7 7 7 7 6 5 5 5 5 5 5 5 6 7 6 6 7 7 6 5 4 4 3 3 3 3 2 2 2 2 2 2 3 2 3 3 5 6
8 7 6 6 7 7 7 5 4 3 4 4 4 4 4 4 4 5 6 6 6 6 7 7 6 5 5 5 5 4 4 3 3 3 3 3 3 3 4 4 4 5 6
7 7 5 6 7 7 6 5 3 3 3 4 4 3 3 3 3 4 4 6 6 7 7 7 6 6 6 6 6 5 5 5 5 4 4 4 5 5 5 5 5 6 6
6 6 5 6 6 4 4 3 3 3 2 3 3 4 4 3 2 2 3 5 6 6 7 6 6 6 6 6 6 6 6 6 6 6 6 6 6 6 6 6 6 6 7
6 6 4 5 5 3 3 3 2 3 3 3 2 3 3 3 2 2 3 3 5 6 6 6 6 6 5 6 7 7 7 7 8 8 7 7 7 7 7 8 8 8 7
5 4 4 3 3 2 3 3 3 2 2 3 2 2 3 3 3 3 2 2 3 5 5 7 6 6 6 6 7 8 8 9 8 8 8 8 9 9 9 9 9 9 9
4 4 4 3 3 2 2 2 2 2 1 2 2 1 1 2 4 3 3 3 3 3 4 6 7 7 6 6 6 7 9 10 9 9 9 10 10 10 11 11 10 10 9
4 4 4 4 3 2 2 2 3 2 1 1 2 1 1 1 2 3 3 3 4 4 4 5 6 7 7 6 7 8 9 10 10 10 10 10 10 11 11 11 10 10 9
3 3 4 3 3 2 2 2 2 2 1 1 1 2 1 1 1 2 5 5 5 4 4 5 5 5 6 6 7 8 10 10 11 11 12 12 11 11 12 11 11 11 10
2 3 3 3 2 2 2 2 1 1 1 2 2 1 1 2 2 2 4 6 6 6 5 4 4 5 6 6 7 9 11 11 12 12 13 12 13 12 12 12 12 11 11
1 2 2 2 2 2 3 2 1 1 1 2 2 2 2 3 2 3 4 5 6 6 4 4 3 5 6 6 8 11 11 12 13 13 14 13 13 12 12 12 12 12 13
2 2 2 2 2 3 3 2 1 2 1 2 3 3 3 3 3 3 3 4 6 5 5 5 3 4 5 7 9 11 10 12 13 13 13 12 12 11 12 12 13 13 13
2 1 2 2 2 2 2 2 1 2 2 2 3 3 3 3 3 3 3 3 4 6 7 5 3 3 7 8 10 10 9 12 13 13 13 13 12 11 12 13 13 13 13
2 2 2 2 2 2 2 2 2 2 3 3 3 3 4 4 3 3 3 3 4 6 7 5 6 6 8 10 11 10 11 13 13 13 13 13 12 11 12 13 13 13 14
2 2 2 2 2 2 2 2 3 3 3 4 4 4 5 5 4 4 4 4 5 5 8 8 6 6 7 7 9 10 11 10 10 12 13 12 12 12 12 13 13 13 14
2 3 3 3 3 3 3 3 4 4 4 5 5 5 6 5 5 5 4 5 5 6 7 10 8 6 8 7 7 7 9 10 10 12 13 13 12 12 12 13 13 13 13
2 3 3 3 4 4 4 4 5 5 6 6 6 6 6 6 6 6 6 6 6 6 6 7 8 7 7 6 7 7 7 7 9 10 12 11 11 11 12 12 12 13 12
2 3 3 4 4 4 5 5 6 6 6 7 7 7 7 7 7 7 7 7 6 6 6 7 7 7 6 6 5 6 7 5 6 8 10 10 11 12 12 12 13 13 12
2 3 3 4 4 4 5 6 6 7 7 7 7 7 8 9 11 9 8 6 6 6 6 7 7 7 7 6 6 5 7 6 6 5 5 7 7 7 8 11 12 12 13
2 3 3 4 5 5 9 11 9 6 5 6 6 6 7 9 11 13 14 13 11 9 7 7 7 8 8 7 6 7 7 7 6 3 4 7 5 6 7 8 11 13 13
2 3 4 4 5 7 11 12 12 6 4 5 6 6 7 7 10 7 11 14 13 15 13 9 9 9 9 7 7 8 8 8 8 6 5 8 6 7 7 9 13 13 13
3 3 4 5 5 7 11 12 12 5 4 5 6 7 7 8 9 9 8 8 8 9 10 8 8 9 8 7 8 9 9 8 7 6 5 7 6 6 7 7 11 12 12
3 4 4 4 5 7 11 12 11 4 5 6 7 7 8 8 13 14 9 8 9 8 11 13 13 13 13 13 10 6 6 6 7 6 3 4 5 5 6 5 8 9 10
3 4 5 4 5 6 10 11 11 4 5 5 6 7 10 11 13 13 8 7 8 8 7 8 9 10 10 9 10 6 6 6 6 6 3 3 4 4 4 4 4 5 6
Wind_Direction
43 41 39 34 30 28 26 23 22 17 14 14 22 28 23 20 17 13 6 9 11 12 16 8 8 4 15 16 12 12 63 83 76 69 64 44 166 205 193 186 190 189 183
49 44 38 31 26 24 24 23 22 15 10 13 13 16 17 18 16 13 8 5 6 9 12 14 11 7 1 354 344 332 310 246 263 266 298 308 273 252 255 205 205 201 194
53 48 39 30 20 20 25 24 22 18 15 15 9 4 12 14 16 14 12 12 9 11 14 12 8 359 344 334 317 304 280 260 250 253 262 273 278 264 261 236 221 212 203
53 51 42 26 21 25 28 25 24 13 10 6 356 350 359 4 9 16 22 24 24 17 10 8 3 353 337 326 316 300 289 270 257 251 262 268 274 264 253 249 239 229 214
49 52 45 30 27 31 29 20 21 15 4 359 351 354 350 352 359 15 26 30 25 18 10 3 358 350 342 334 319 303 291 278 263 252 251 256 263 261 250 248 242 239 229
46 48 45 33 33 32 22 14 9 9 359 346 350 353 335 337 359 17 24 21 13 6 3 1 355 345 339 337 330 318 302 284 268 258 248 249 254 257 253 252 247 244 237
47 47 39 31 29 27 10 6 6 5 4 358 8 351 340 337 340 1 5 2 3 355 357 359 355 350 340 328 324 320 315 304 279 263 250 249 252 252 254 252 253 249 246
43 45 41 28 20 18 10 8 12 0 352 9 15 2 343 335 340 328 319 325 341 350 350 344 343 341 338 330 320 316 312 308 302 276 259 253 253 254 254 254 253 254 252
43 44 41 32 18 27 8 360 5 12 337 347 14 54 19 295 315 308 317 314 321 324 330 328 329 326 323 323 318 314 314 312 301 293 278 259 252 253 255 254 254 254 253
39 41 38 36 27 29 18 3 22 351 341 319 332 359 255 255 287 306 307 313 318 310 305 316 311 308 312 313 312 311 312 312 307 300 288 277 259 253 254 253 253 255 251
25 32 35 38 28 21 17 15 12 1 341 297 298 309 317 302 261 273 293 306 312 296 299 296 296 299 300 302 306 305 307 306 303 299 293 283 276 264 258 254 253 252 252
356 10 26 26 16 6 357 352 357 349 329 317 306 291 275 270 280 275 282 297 302 300 300 290 291 289 297 307 303 305 303 300 299 294 291 288 280 278 265 258 255 253 254
318 327 349 353 348 340 339 345 350 326 312 304 297 293 280 270 270 271 278 290 296 300 297 284 276 287 297 309 307 307 302 300 298 294 290 289 285 279 276 265 259 257 254
256 286 303 310 324 329 329 333 326 305 310 294 298 297 292 286 275 267 270 283 294 294 289 283 292 282 300 305 302 304 302 302 300 297 292 291 286 277 271 272 261 257 254
261 276 293 289 302 306 305 305 290 292 294 282 281 284 288 285 279 270 263 262 269 284 287 286 294 295 304 301 299 298 298 297 298 298 293 289 285 275 271 267 265 256 254
259 256 278 277 287 286 284 278 281 280 281 279 279 283 285 285 285 280 270 265 259 263 275 280 287 294 299 298 297 298 293 293 293 291 290 286 280 273 268 267 263 262 253
247 251 261 268 270 278 273 271 273 276 276 279 281 281 281 282 283 279 275 271 264 262 274 286 286 290 290 289 292 292 289 286 285 287 287 287 279 271 266 267 263 260 255
251 256 260 266 267 274 274 268 273 275 269 272 273 274 278 283 283 280 273 271 268 260 267 283 288 291 286 283 282 283 290 291 288 287 286 283 280 274 269 265 264 259 256
253 263 262 266 266 269 269 266 262 264 261 262 263 263 268 272 275 275 272 271 272 274 268 276 285 288 287 285 284 287 286 287 288 285 279 278 281 279 273 267 265 255 256
249 257 262 267 264 268 269 266 262 261 261 260 258 258 261 262 265 270 271 267 270 274 275 276 281 287 288 287 283 287 291 289 290 289 279 280 281 280 274 269 265 258 254
261 265 272 278 275 271 264 261 260 260 258 260 259 260 262 267 270 273 276 270 267 270 275 277 277 286 287 293 290 292 290 295 290 277 279 279 274 268 267 271 263 256 255
278 283 280 280 280 283 287 288 285 267 260 261 265 267 268 272 276 281 283 283 279 272 272 272 277 275 280 282 284 287 289 294 292 266 271 282 272 270 267 263 263 260 256
283 282 282 279 278 284 292 293 293 289 267 264 266 270 277 277 282 275 279 282 280 278 275 273 272 270 274 274 277 281 279 278 279 275 275 280 277 274 268 264 265 260 253
278 277 278 275 279 288 296 297 300 296 276 270 266 263 268 272 272 274 271 273 270 271 272 272 265 268 271 270 266 270 272 280 284 273 265 274 277 276 280 265 261 257 254
283 280 280 276 281 292 299 301 302 288 280 276 274 269 269 267 276 281 278 276 279 279 283 281 282 284 285 286 287 284 280 280 284 283 269 269 279 288 283 270 258 258 258
283 288 292 286 282 286 296 302 306 295 292 289 283 277 280 282 286 287 276 269 275 279 283 288 288 288 286 286 284 275 267 266 278 283 263 266 281 298 291 275 256 253 259
Height
1537 1536 1536 1535 1535 1534 1534 1533 1533 1533 1533 1533 1533 1532 1532 1532 1532 1532 1532 1532 1533 1533 1533 1533 1533 1534 1534 1534 1534 1535 1535 1536 1536 1537 1538 1538 1539 1540 1541 1542 1543 1544 1545
1535 1535 1534 1534 1534 1533 1532 1532 1531 1531 1531 1531 1531 1530 1530 1530 1530 1530 1530 1530 1530 1530 1530 1530 1530 1531 1531 1531 1532 1532 1533 1533 1534 1534 1535 1536 1537 1537 1538 1540 1541 1542 1543
1534 1533 1533 1533 1532 1532 1531 1530 1530 1529 1529 1528 1528 1528 1528 1527 1527 1527 1527 1527 1527 1527 1527 1528 1528 1528 1528 1529 1529 1529 1530 1530 1531 1532 1532 1533 1533 1534 1536 1537 1538 1539 1540
1532 1532 1531 1531 1530 1530 1529 1529 1528 1527 1527 1526 1526 1525 1525 1525 1525 1524 1524 1524 1524 1524 1524 1524 1524 1525 1525 1526 1526 1526 1527 1527 1528 1529 1529 1530 1530 1531 1532 1534 1535 1536 1537
1531 1530 1529 1529 1528 1528 1527 1527 1526 1525 1525 1524 1523 1523 1523 1522 1522 1522 1522 1521 1521 1521 1521 1521 1521 1522 1522 1522 1522 1523 1523 1524 1524 1525 1526 1526 1527 1528 1529 1530 1531 1532 1533
1529 1528 1527 1527 1526 1526 1525 1525 1524 1524 1523 1522 1521 1521 1520 1520 1519 1519 1519 1519 1519 1518 1518 1518 1518 1518 1519 1519 1519 1519 1520 1520 1521 1521 1522 1523 1524 1524 1525 1526 1527 1528 1530
1527 1526 1525 1525 1524 1524 1523 1522 1522 1522 1521 1520 1519 1518 1518 1517 1516 1516 1517 1516 1516 1516 1515 1515 1515 1515 1515 1516 1516 1516 1516 1516 1517 1517 1517 1518 1520 1520 1521 1522 1523 1524 1525
1524 1524 1523 1523 1522 1521 1521 1520 1520 1519 1519 1518 1517 1516 1515 1515 1514 1514 1513 1513 1513 1513 1512 1512 1512 1512 1512 1512 1512 1512 1512 1512 1512 1512 1513 1514 1515 1516 1517 1518 1519 1520 1521
1522 1522 1521 1520 1519 1519 1518 1517 1517 1517 1516 1516 1516 1516 1515 1513 1512 1510 1510 1510 1510 1509 1509 1509 1508 1508 1508 1508 1508 1508 1508 1508 1508 1508 1508 1509 1510 1511 1512 1513 1514 1515 1516
1520 1519 1518 1518 1517 1516 1516 1515 1515 1514 1514 1513 1514 1513 1514 1513 1512 1508 1507 1507 1506 1506 1505 1505 1504 1504 1504 1504 1504 1504 1504 1504 1504 1504 1504 1504 1505 1506 1507 1508 1509 1510 1511
1517 1516 1516 1515 1514 1514 1513 1512 1512 1512 1511 1511 1511 1510 1510 1510 1509 1508 1504 1502 1502 1501 1501 1501 1500 1500 1499 1499 1499 1499 1499 1499 1499 1499 1499 1500 1499 1500 1501 1502 1503 1504 1505
1514 1513 1513 1512 1512 1511 1510 1509 1509 1509 1508 1508 1507 1507 1507 1506 1505 1505 1502 1499 1497 1496 1496 1496 1496 1496 1495 1494 1494 1494 1494 1493 1493 1493 1494 1494 1494 1495 1496 1496 1497 1498 1500
1511 1510 1510 1509 1509 1508 1507 1506 1506 1505 1505 1504 1504 1503 1503 1503 1502 1502 1500 1497 1494 1492 1492 1491 1491 1491 1490 1490 1489 1489 1488 1488 1487 1488 1488 1488 1489 1489 1490 1490 1491 1492 1493
1508 1507 1507 1506 1505 1504 1504 1503 1502 1502 1501 1500 1500 1500 1499 1499 1498 1498 1497 1495 1492 1489 1487 1486 1486 1486 1486 1485 1484 1483 1483 1482 1482 1482 1482 1482 1483 1483 1484 1484 1485 1486 1487
1504 1504 1503 1502 1502 1501 1500 1499 1498 1498 1497 1497 1496 1496 1495 1495 1494 1493 1493 1492 1491 1487 1483 1481 1481 1481 1481 1480 1479 1478 1477 1477 1476 1476 1476 1477 1477 1477 1478 1479 1479 1480 1481
1501 1500 1499 1498 1498 1497 1496 1495 1494 1494 1493 1492 1492 1491 1491 1490 1489 1489 1488 1488 1487 1485 1481 1477 1477 1476 1475 1474 1474 1473 1472 1471 1471 1471 1471 1471 1471 1471 1472 1473 1473 1474 1475
1497 1496 1495 1494 1494 1493 1492 1491 1490 1490 1489 1488 1487 1486 1486 1485 1485 1484 1483 1482 1482 1480 1477 1473 1473 1471 1470 1469 1468 1467 1466 1465 1465 1465 1465 1465 1465 1465 1466 1466 1467 1468 1468
1493 1493 1492 1490 1490 1489 1488 1487 1486 1485 1484 1483 1482 1481 1481 1480 1479 1479 1478 1477 1476 1475 1473 1469 1467 1466 1465 1464 1462 1461 1460 1459 1459 1459 1459 1458 1458 1458 1459 1460 1460 1461 1462
1489 1488 1487 1486 1485 1484 1483 1483 1482 1480 1479 1478 1477 1476 1476 1475 1474 1473 1472 1471 1470 1469 1468 1465 1462 1461 1460 1459 1457 1455 1454 1453 1453 1453 1453 1452 1452 1452 1453 1453 1454 1454 1456
1484 1484 1483 1482 1481 1480 1479 1478 1477 1476 1474 1473 1473 1472 1471 1470 1469 1468 1467 1466 1465 1464 1462 1460 1457 1456 1454 1453 1452 1449 1447 1447 1447 1447 1447 1446 1446 1446 1446 1447 1447 1448 1449
1480 1479 1478 1477 1476 1475 1474 1473 1472 1471 1470 1468 1468 1467 1466 1465 1464 1463 1462 1461 1460 1458 1457 1455 1452 1450 1449 1448 1447 1445 1443 1441 1440 1441 1440 1440 1440 1439 1439 1440 1440 1441 1442
1476 1475 1474 1473 1472 1470 1469 1469 1468 1466 1465 1464 1462 1461 1460 1459 1458 1458 1457 1455 1455 1453 1451 1450 1448 1446 1444 1443 1442 1441 1439 1436 1434 1434 1434 1433 1433 1432 1432 1433 1433 1434 1435
1471 1470 1469 1468 1467 1466 1465 1464 1463 1462 1460 1458 1457 1456 1454 1454 1453 1452 1450 1449 1448 1447 1447 1445 1443 1441 1439 1438 1438 1436 1434 1432 1430 1429 1429 1426 1426 1425 1425 1425 1426 1427 1428
1467 1466 1465 1464 1463 1462 1461 1459 1458 1456 1454 1453 1451 1450 1449 1448 1447 1446 1444 1442 1441 1440 1440 1439 1437 1435 1434 1433 1433 1431 1429 1427 1425 1424 1424 1421 1419 1419 1419 1419 1420 1420 1420
1464 1463 1461 1460 1459 1457 1456 1455 1453 1451 1449 1447 1446 1445 1443 1442 1441 1440 1439 1437 1435 1434 1433 1432 1431 1430 1429 1428 1427 1426 1424 1422 1418 1417 1418 1416 1414 1413 1412 1412 1413 1413 1413
1460 1459 1457 1456 1454 1453 1451 1450 1449 1446 1444 1442 1440 1439 1438 1437 1436 1435 1433 1431 1429 1428 1427 1426 1425 1424 1422 1421 1421 1420 1419 1417 1414 1412 1411 1412 1410 1409 1406 1405 1406 1407 1407